Weather History for Albany, NY

Change the Weather History Date:

Tuesday, September 6, 2011

  Actual Average Record
Temperature  
Mean Temperature 64 °F 66 °F  
Max Temperature 67 °F 76 °F 91 °F (1983)
Min Temperature 60 °F 55 °F 38 °F (1938)
Degree Days  
Heating Degree Days 1 2  
Month to date heating degree days 1 11  
Since 1 July heating degree days 3 34  
Cooling Degree Days 0 3  
Month to date cooling degree days 33 20  
Year to date cooling degree days 740 563  
Growing Degree Days 13 (Base 50)    
Moisture  
Dew Point 59 °F    
Average Humidity 88    
Maximum Humidity 97    
Minimum Humidity 78    
Precipitation  
Precipitation 0.82 in 0.10 in 1.79 in (1979)
Month to date precipitation 1.88 0.60  
Year to date precipitation 39.78 26.75  
Sea Level Pressure  
Sea Level Pressure 30.03 in    
Wind  
Wind Speed 4 mph (NNW)    
Max Wind Speed 15 mph    
Max Gust Speed 21 mph    
Visibility 7 miles    
Events Rain    
T = Trace of Precipitation, MM = Missing Value Source: NWS Daily Summary

Daily Weather History Graph

Daily Weather History Graph

Search for Another Location

Airport:

Trip Planner

Search our weather history database for the weather conditions in past years. The results will help you decide how hot, cold, wet, or windy it might be!

Date:

Astronomy

Sep. 06, 2011 Rise Set
Actual Time 6:24 AM EDT 7:21 PM EDT
Civil Twilight 5:56 AM EDT 7:50 PM EDT
Nautical Twilight 5:21 AM EDT 8:24 PM EDT
Astronomical Twilight 4:45 AM EDT 9:00 PM EDT
Moon 4:00 PM EDT (9/6) 12:30 AM EDT (9/6)
Length of Visible Light 13h 54m
Length of Day
12h 56m
Waxing Gibbous, 70% of the Moon is Illuminated
Sep 6
Waxing Gibbous
Sep 12
Full
Sep 20
Last Quarter
Sep 27
New
Oct 3
First Quarter

Hourly Weather History & Observations

Time (EDT) Temp. Dew Point Humidity Pressure Visibility Wind Dir Wind Speed Gust Speed Precip Events Conditions
12:42 AM 62.6 °F 60.8 °F 94% 29.91 in 2.5 mi Calm Calm - 0.13 in Rain Rain
12:51 AM 63.0 °F 61.0 °F 93% 29.91 in 1.5 mi Calm Calm - 0.18 in Rain Heavy Rain
1:07 AM 62.6 °F 60.8 °F 94% 29.90 in 2.5 mi Calm Calm - 0.15 in Rain Heavy Rain
1:29 AM 62.6 °F 60.8 °F 94% 29.90 in 3.0 mi Calm Calm - 0.24 in Rain Heavy Rain
1:41 AM 62.6 °F 60.8 °F 94% 29.91 in 6.0 mi West 3.5 mph - 0.26 in Rain Light Rain
1:51 AM 62.1 °F 61.0 °F 96% 29.90 in 6.0 mi NW 4.6 mph - 0.27 in Rain Light Rain
2:01 AM 62.6 °F 60.8 °F 94% 29.91 in 6.0 mi WNW 6.9 mph - 0.01 in Rain Light Rain
2:25 AM 62.6 °F 60.8 °F 94% 29.91 in 2.5 mi NNW 6.9 mph - 0.07 in Rain Rain
2:51 AM 62.1 °F 60.1 °F 93% 29.92 in 3.0 mi NW 4.6 mph - 0.16 in Rain Rain
3:28 AM 60.8 °F 57.2 °F 88% 29.93 in 5.0 mi North 12.7 mph 19.6 mph 0.13 in Rain Rain
3:51 AM 60.1 °F 57.9 °F 93% 29.93 in 4.0 mi NNE 10.4 mph 18.4 mph 0.18 in Rain Rain
4:51 AM 60.1 °F 59.0 °F 96% 29.94 in 6.0 mi North 5.8 mph - 0.13 in Rain Light Rain
5:51 AM 60.1 °F 59.0 °F 96% 29.96 in 6.0 mi NNW 3.5 mph - 0.06 in Rain Light Rain
6:51 AM 60.1 °F 59.0 °F 96% 29.97 in 8.0 mi Calm Calm - 0.02 in Rain Light Rain
7:14 AM 60.8 °F 59.0 °F 94% 29.97 in 8.0 mi NW 3.5 mph - 0.00 in Rain Light Rain
7:51 AM 61.0 °F 59.0 °F 93% 30.00 in 9.0 mi NW 4.6 mph - 0.00 in Rain Light Rain
8:09 AM 60.8 °F 59.0 °F 94% 30.01 in 9.0 mi NNW 3.5 mph - 0.00 in Rain Light Rain
8:51 AM 62.1 °F 59.0 °F 90% 30.02 in 5.0 mi North 5.8 mph - 0.00 in   Light Drizzle
9:34 AM 62.6 °F 59.0 °F 88% 30.03 in 10.0 mi NNW 6.9 mph - N/A   Overcast
9:51 AM 63.0 °F 60.1 °F 90% 30.04 in 10.0 mi NW 6.9 mph - 0.01 in   Overcast
10:03 AM 62.6 °F 59.0 °F 88% 30.05 in 2.5 mi NW 5.8 mph - 0.00 in Rain Light Rain
10:10 AM 62.6 °F 60.8 °F 94% 30.05 in 3.0 mi NNW 5.8 mph - 0.01 in Rain Light Rain
10:51 AM 61.0 °F 59.0 °F 93% 30.06 in 7.0 mi East 6.9 mph - 0.02 in Rain Light Rain
11:27 AM 62.6 °F 59.0 °F 88% 30.07 in 9.0 mi Calm Calm - 0.00 in   Overcast
11:51 AM 63.0 °F 59.0 °F 87% 30.07 in 10.0 mi North 3.5 mph - 0.00 in   Overcast
12:51 PM 64.0 °F 59.0 °F 84% 30.09 in 10.0 mi North 3.5 mph - 0.00 in Rain Light Rain
1:51 PM 64.9 °F 59.0 °F 81% 30.10 in 10.0 mi Calm Calm - 0.01 in Rain Light Rain
2:35 PM 64.4 °F 60.8 °F 88% 30.10 in 10.0 mi Calm Calm - 0.01 in Rain Light Rain
2:51 PM 64.4 °F 60.8 °F 88% 30.10 in 10.0 mi NNW 3.5 mph - N/A Rain Light Rain
3:51 PM 66.9 °F 60.1 °F 79% 30.11 in 10.0 mi NNW 3.5 mph - 0.00 in   Overcast
4:51 PM 64.9 °F 57.9 °F 78% 30.11 in 10.0 mi NNE 4.6 mph - N/A   Overcast
5:51 PM 64.9 °F 59.0 °F 81% 30.14 in 10.0 mi North 3.5 mph - N/A   Overcast
6:51 PM 64.0 °F 59.0 °F 84% 30.14 in 10.0 mi Calm Calm - 0.00 in Rain Light Rain
7:51 PM 64.0 °F 59.0 °F 84% 30.15 in 10.0 mi NNE 4.6 mph - 0.00 in   Overcast
8:51 PM 63.0 °F 57.9 °F 84% 30.17 in 10.0 mi NE 3.5 mph - N/A   Overcast
9:51 PM 63.0 °F 57.9 °F 84% 30.18 in 10.0 mi Calm Calm - N/A   Overcast
10:51 PM 62.1 °F 57.9 °F 86% 30.18 in 10.0 mi NNE 3.5 mph - 0.00 in   Light Drizzle
11:51 PM 61.0 °F 59.0 °F 93% 30.19 in 10.0 mi NNW 4.6 mph - 0.01 in Rain Light Rain